Regional Weather Roundup
Issued by NWS

Home | Current Version | Previous Version | Text Only | Print | Product List | Glossary On
Versions: 1 2 3 4 5 6 7 8 9 10 11 12 13 14 15 16 17 18 19 20 21 22 23 24 25 26 27 28 29 30 31 32 33 34 35 36 37 38 39 40 41 42 43 44 45 46 47 48 49 50
000
ASUS42 KKEY 020110
RWRKEY

FLORIDA REGIONAL WEATHER ROUNDUP FOR THE FLORIDA KEYS
NATIONAL WEATHER SERVICE KEY WEST FLORIDA
800 PM EST SUN FEB 01 2015

...SOUTH FLORIDA AND THE KEYS...

CITY           SKY/WX    TMP DP  RH WIND       PRES   REMARKS
FORT MYERS     CLEAR     69  56  62 SE7       30.06S
SW REGIONAL AP CLEAR     67  56  67 SE9       30.07S
NAPLES         CLEAR     68  59  73 SE8       30.08R
MIAMI          PTCLDY    71  59  65 E10       30.11S
WEST KENDALL   CLEAR     69  60  73 E7        30.11R
HOMESTEAD      CLEAR     69  60  73 E6        30.10S
MARATHON       MOCLDY    72  65  78 SE9G16    30.08S
BOCA CHICA NAS MOCLDY    72  64  76 SE15      30.07R
KEY WEST INTL  CLEAR     73  65  75 SE15      30.08R

...INTERNATIONAL WEATHER...

CITY           SKY/WX    TMP DP  RH WIND       PRES   REMARKS
NASSAU BAHAMAS PTCLDY    70  61  73 SE8       30.15S
CANCUN MEXICO  CLEAR     73  70  88 CALM      29.98R
COZUMEL MEXICO CLEAR     70  68  94 CALM      29.97S

ADJACENT COASTAL WATERS...

STATION/POSITION TIME  SKY/WX   TEMP    WIND        PRES    WAVE
                                AIR SEA DIR/SP/G            HT/PER
                 (UTC)          (F)     (DEG/KT/KT) (MB)    (FT/S)
PULASKI SHOAL LI NOT AVBL
SAND KEY         NOT AVBL
SOMBRERO KEY     NOT AVBL
LONG KEY         NOT AVBL
MOLASSES REEF    NOT AVBL
FOWEY ROCKS      NOT AVBL
Buoy 42080       NOT AVBL

$$



USA.gov is the U.S. government's official web portal to all federal, state and local government web resources and services.